Time,TemperatureF,DewpointF,PressureIn,WindDirection,WindDirectionDegrees,WindSpeedMPH,WindSpeedGustMPH,Humidity,HourlyPrecipIn,Conditions,Clouds,dailyrainin,SoftwareType,DateUTC
2013-12-12 00:04:00,43.4,37.0,30.30,NNW,332,2.0,-999.0,78,-99.99,,,0.00,weatherlink.com 1.10,2013-12-12 05:04:00,
2013-12-12 00:19:00,44.3,38.0,30.29,NW,325,2.0,-999.0,77,-99.99,,,0.00,weatherlink.com 1.10,2013-12-12 05:19:00,
2013-12-12 00:34:00,45.0,38.0,30.28,North,349,3.0,-999.0,77,-99.99,,,0.00,weatherlink.com 1.10,2013-12-12 05:34:00,
2013-12-12 00:49:00,44.5,36.0,30.28,NNW,331,2.0,-999.0,73,-99.99,,,0.00,weatherlink.com 1.10,2013-12-12 05:49:00,
2013-12-12 01:04:00,44.2,35.0,30.27,NNW,343,5.0,-999.0,70,-99.99,,,0.00,weatherlink.com 1.10,2013-12-12 06:04:00,
2013-12-12 01:19:00,44.3,35.0,30.28,NW,326,5.0,-999.0,70,-99.99,,,0.00,weatherlink.com 1.10,2013-12-12 06:19:00,
2013-12-12 01:34:00,44.2,35.0,30.27,NW,317,2.0,-999.0,69,-99.99,,,0.00,weatherlink.com 1.10,2013-12-12 06:34:00,
2013-12-12 01:49:00,44.3,34.0,30.27,NW,326,3.0,-999.0,66,-99.99,,,0.00,weatherlink.com 1.10,2013-12-12 06:49:00,
2013-12-12 02:05:00,44.5,32.0,30.27,NNW,341,6.0,-999.0,63,-99.99,,,0.00,weatherlink.com 1.10,2013-12-12 07:05:00,
2013-12-12 02:20:00,44.4,33.0,30.26,NNW,336,2.0,-999.0,65,-99.99,,,0.00,weatherlink.com 1.10,2013-12-12 07:20:00,
2013-12-12 02:35:00,44.3,34.0,30.25,NNW,339,3.0,-999.0,66,-99.99,,,0.00,weatherlink.com 1.10,2013-12-12 07:35:00,
2013-12-12 02:50:00,44.2,33.0,30.26,NNW,331,1.0,-999.0,66,-99.99,,,0.00,weatherlink.com 1.10,2013-12-12 07:50:00,
2013-12-12 03:05:00,44.3,34.0,30.26,NNE,15,7.0,-999.0,67,-99.99,,,0.00,weatherlink.com 1.10,2013-12-12 08:05:00,
2013-12-12 03:20:00,44.6,35.0,30.25,NNW,336,2.0,-999.0,68,-99.99,,,0.00,weatherlink.com 1.10,2013-12-12 08:20:00,
2013-12-12 03:35:00,44.7,35.0,30.26,NNW,341,6.0,-999.0,68,-99.99,,,0.00,weatherlink.com 1.10,2013-12-12 08:35:00,
2013-12-12 03:50:00,45.0,34.0,30.25,North,355,6.0,-999.0,66,-99.99,,,0.00,weatherlink.com 1.10,2013-12-12 08:50:00,
2013-12-12 04:05:00,45.0,35.0,30.25,NNW,338,6.0,-999.0,67,-99.99,,,0.00,weatherlink.com 1.10,2013-12-12 09:05:00,
2013-12-12 04:20:00,45.0,35.0,30.25,North,350,7.0,-999.0,68,-99.99,,,0.00,weatherlink.com 1.10,2013-12-12 09:20:00,
2013-12-12 04:35:00,45.0,34.0,30.24,NW,322,6.0,-999.0,65,-99.99,,,0.00,weatherlink.com 1.10,2013-12-12 09:35:00,
2013-12-12 04:50:00,44.9,34.0,30.25,North,355,5.0,-999.0,67,-99.99,,,0.00,weatherlink.com 1.10,2013-12-12 09:50:00,
2013-12-12 05:05:00,44.7,35.0,30.25,North,11,7.0,-999.0,69,-99.99,,,0.00,weatherlink.com 1.10,2013-12-12 10:05:00,
2013-12-12 05:20:00,45.1,35.0,30.24,NNW,348,6.0,-999.0,69,-99.99,,,0.00,weatherlink.com 1.10,2013-12-12 10:20:00,
2013-12-12 05:35:00,45.2,34.0,30.24,North,355,15.0,-999.0,65,-99.99,,,0.00,weatherlink.com 1.10,2013-12-12 10:35:00,
2013-12-12 05:50:00,45.0,33.0,30.24,North,10,3.0,-999.0,64,-99.99,,,0.00,weatherlink.com 1.10,2013-12-12 10:50:00,
2013-12-12 06:05:00,44.6,35.0,30.24,NNW,332,7.0,-999.0,68,-99.99,,,0.00,weatherlink.com 1.10,2013-12-12 11:05:00,
2013-12-12 06:20:00,44.2,35.0,30.25,North,5,9.0,-999.0,70,-99.99,,,0.00,weatherlink.com 1.10,2013-12-12 11:20:00,
2013-12-12 06:35:00,44.5,34.0,30.25,NNE,13,11.0,-999.0,68,-99.99,,,0.00,weatherlink.com 1.10,2013-12-12 11:35:00,
2013-12-12 06:50:00,44.3,35.0,30.25,NNE,17,13.0,-999.0,69,-99.99,,,0.00,weatherlink.com 1.10,2013-12-12 11:50:00,
2013-12-12 07:05:00,44.5,35.0,30.26,NNE,25,9.0,-999.0,69,-99.99,,,0.00,weatherlink.com 1.10,2013-12-12 12:05:00,
2013-12-12 07:20:00,44.8,35.0,30.26,North,360,7.0,-999.0,69,-99.99,,,0.00,weatherlink.com 1.10,2013-12-12 12:20:00,
2013-12-12 07:35:00,44.7,35.0,30.27,North,360,6.0,-999.0,70,-99.99,,,0.00,weatherlink.com 1.10,2013-12-12 12:35:00,
2013-12-12 07:50:00,44.6,36.0,30.27,NE,53,11.0,-999.0,71,-99.99,,,0.00,weatherlink.com 1.10,2013-12-12 12:50:00,
2013-12-12 08:05:00,44.5,34.0,30.28,NNE,30,9.0,-999.0,68,-99.99,,,0.00,weatherlink.com 1.10,2013-12-12 13:05:00,
2013-12-12 08:20:00,44.4,36.0,30.27,NNW,329,7.0,-999.0,71,-99.99,,,0.00,weatherlink.com 1.10,2013-12-12 13:20:00,
2013-12-12 08:35:00,44.2,36.0,30.28,NNW,348,2.0,-999.0,73,-99.99,,,0.00,weatherlink.com 1.10,2013-12-12 13:35:00,
2013-12-12 08:50:00,44.9,38.0,30.29,ENE,64,6.0,-999.0,76,-99.99,,,0.00,weatherlink.com 1.10,2013-12-12 13:50:00,
2013-12-12 09:05:00,45.9,39.0,30.29,NNW,344,7.0,-999.0,77,-99.99,,,0.00,weatherlink.com 1.10,2013-12-12 14:05:00,
2013-12-12 09:20:00,46.1,39.0,30.30,NNE,13,11.0,-999.0,76,-99.99,,,0.00,weatherlink.com 1.10,2013-12-12 14:20:00,
2013-12-12 09:35:00,46.4,39.0,30.31,North,10,10.0,-999.0,75,-99.99,,,0.00,weatherlink.com 1.10,2013-12-12 14:35:00,
2013-12-12 09:50:00,46.7,39.0,30.31,North,5,10.0,-999.0,74,-99.99,,,0.00,weatherlink.com 1.10,2013-12-12 14:50:00,
2013-12-12 10:05:00,46.9,37.0,30.32,NE,46,11.0,-999.0,69,-99.99,,,0.00,weatherlink.com 1.10,2013-12-12 15:05:00,
2013-12-12 10:20:00,47.4,39.0,30.32,NNE,13,15.0,-999.0,72,-99.99,,,0.00,weatherlink.com 1.10,2013-12-12 15:20:00,
2013-12-12 10:35:00,46.6,39.0,30.32,North,355,14.0,-999.0,76,-99.99,,,0.00,weatherlink.com 1.10,2013-12-12 15:35:00,
2013-12-12 10:50:00,46.9,38.0,30.32,NNW,346,8.0,-999.0,72,-99.99,,,0.00,weatherlink.com 1.10,2013-12-12 15:50:00,
2013-12-12 11:05:00,46.1,37.0,30.32,North,355,14.0,-999.0,71,-99.99,,,0.00,weatherlink.com 1.10,2013-12-12 16:05:00,
2013-12-12 11:20:00,45.9,37.0,30.32,NNE,17,13.0,-999.0,72,-99.99,,,0.00,weatherlink.com 1.10,2013-12-12 16:20:00,
2013-12-12 11:35:00,45.5,37.0,30.32,NE,36,16.0,-999.0,71,-99.99,,,0.00,weatherlink.com 1.10,2013-12-12 16:35:00,
2013-12-12 11:50:00,45.2,36.0,30.32,North,11,13.0,-999.0,71,-99.99,,,0.00,weatherlink.com 1.10,2013-12-12 16:50:00,
2013-12-12 12:05:00,45.1,35.0,30.31,NNE,31,12.0,-999.0,69,-99.99,,,0.00,weatherlink.com 1.10,2013-12-12 17:05:00,
2013-12-12 12:20:00,44.5,35.0,30.31,North,5,13.0,-999.0,69,-99.99,,,0.00,weatherlink.com 1.10,2013-12-12 17:20:00,
2013-12-12 12:35:00,44.3,35.0,30.31,NNE,32,18.0,-999.0,70,-99.99,,,0.00,weatherlink.com 1.10,2013-12-12 17:35:00,
2013-12-12 12:51:00,44.3,35.0,30.31,NNE,22,11.0,-999.0,71,-99.99,,,0.00,weatherlink.com 1.10,2013-12-12 17:51:00,
2013-12-12 13:21:00,43.8,34.0,30.30,North,9,15.0,-999.0,69,-99.99,,,0.00,weatherlink.com 1.10,2013-12-12 18:21:00,
2013-12-12 13:36:00,43.2,33.0,30.30,NNE,20,9.0,-999.0,68,-99.99,,,0.00,weatherlink.com 1.10,2013-12-12 18:36:00,
2013-12-12 13:51:00,42.7,33.0,30.29,NE,52,6.0,-999.0,69,-99.99,,,0.00,weatherlink.com 1.10,2013-12-12 18:51:00,
2013-12-12 14:06:00,42.5,33.0,30.29,North,350,14.0,-999.0,69,-99.99,,,0.00,weatherlink.com 1.10,2013-12-12 19:06:00,
2013-12-12 14:21:00,42.0,32.0,30.29,NE,38,12.0,-999.0,68,-99.99,,,0.00,weatherlink.com 1.10,2013-12-12 19:21:00,
2013-12-12 14:36:00,41.8,33.0,30.30,NNW,337,6.0,-999.0,70,-99.99,,,0.00,weatherlink.com 1.10,2013-12-12 19:36:00,
2013-12-12 14:51:00,41.6,32.0,30.31,North,360,12.0,-999.0,70,-99.99,,,0.00,weatherlink.com 1.10,2013-12-12 19:51:00,
2013-12-12 15:06:00,41.1,32.0,30.32,NNE,17,10.0,-999.0,69,-99.99,,,0.00,weatherlink.com 1.10,2013-12-12 20:06:00,
2013-12-12 15:21:00,40.4,32.0,30.33,North,5,11.0,-999.0,71,-99.99,,,0.00,weatherlink.com 1.10,2013-12-12 20:21:00,
2013-12-12 15:36:00,39.4,31.0,30.34,North,350,8.0,-999.0,72,-99.99,,,0.00,weatherlink.com 1.10,2013-12-12 20:36:00,
2013-12-12 15:51:00,39.1,31.0,30.34,North,360,8.0,-999.0,72,-99.99,,,0.00,weatherlink.com 1.10,2013-12-12 20:51:00,
2013-12-12 16:06:00,38.9,30.0,30.34,North,11,10.0,-999.0,71,-99.99,,,0.00,weatherlink.com 1.10,2013-12-12 21:06:00,
2013-12-12 16:21:00,38.5,30.0,30.34,NNE,31,13.0,-999.0,71,-99.99,,,0.00,weatherlink.com 1.10,2013-12-12 21:21:00,
2013-12-12 16:36:00,37.9,30.0,30.34,NNE,26,10.0,-999.0,72,-99.99,,,0.00,weatherlink.com 1.10,2013-12-12 21:36:00,
2013-12-12 16:51:00,37.7,29.0,30.34,NE,40,8.0,-999.0,72,-99.99,,,0.00,weatherlink.com 1.10,2013-12-12 21:51:00,
2013-12-12 17:06:00,37.7,29.0,30.35,NNW,344,19.0,-999.0,70,-99.99,,,0.00,weatherlink.com 1.10,2013-12-12 22:06:00,
2013-12-12 17:21:00,37.7,29.0,30.36,North,360,11.0,-999.0,71,-99.99,,,0.00,weatherlink.com 1.10,2013-12-12 22:21:00,
2013-12-12 17:36:00,37.7,29.0,30.36,North,5,7.0,-999.0,71,-99.99,,,0.00,weatherlink.com 1.10,2013-12-12 22:36:00,
2013-12-12 17:51:00,37.5,29.0,30.37,NNE,13,17.0,-999.0,70,-99.99,,,0.00,weatherlink.com 1.10,2013-12-12 22:51:00,
2013-12-12 18:06:00,37.5,29.0,30.37,NE,46,14.0,-999.0,71,-99.99,,,0.00,weatherlink.com 1.10,2013-12-12 23:06:00,
2013-12-12 18:21:00,37.6,29.0,30.38,NNE,22,5.0,-999.0,71,-99.99,,,0.00,weatherlink.com 1.10,2013-12-12 23:21:00,
2013-12-12 18:36:00,37.6,29.0,30.38,NNE,17,4.0,-999.0,70,-99.99,,,0.00,weatherlink.com 1.10,2013-12-12 23:36:00,
2013-12-12 18:51:00,37.5,28.0,30.38,North,355,4.0,-999.0,69,-99.99,,,0.00,weatherlink.com 1.10,2013-12-12 23:51:00,
2013-12-12 19:07:00,37.6,29.0,30.38,NNE,24,1.0,-999.0,70,-99.99,,,0.00,weatherlink.com 1.10,2013-12-13 00:07:00,
2013-12-12 19:21:00,37.4,28.0,30.38,North,11,3.0,-999.0,70,-99.99,,,0.00,weatherlink.com 1.10,2013-12-13 00:21:00,
2013-12-12 19:36:00,37.3,29.0,30.39,NNE,14,8.0,-999.0,71,-99.99,,,0.00,weatherlink.com 1.10,2013-12-13 00:36:00,
2013-12-12 19:51:00,37.3,29.0,30.39,North,10,7.0,-999.0,71,-99.99,,,0.00,weatherlink.com 1.10,2013-12-13 00:51:00,
2013-12-12 20:06:00,37.4,28.0,30.39,North,5,7.0,-999.0,70,-99.99,,,0.00,weatherlink.com 1.10,2013-12-13 01:06:00,
2013-12-12 20:21:00,37.5,29.0,30.39,NE,46,5.0,-999.0,71,-99.99,,,0.00,weatherlink.com 1.10,2013-12-13 01:21:00,
2013-12-12 20:36:00,37.5,29.0,30.39,NNE,16,3.0,-999.0,71,-99.99,,,0.00,weatherlink.com 1.10,2013-12-13 01:36:00,
2013-12-12 20:51:00,37.6,29.0,30.40,North,360,5.0,-999.0,71,-99.99,,,0.00,weatherlink.com 1.10,2013-12-13 01:51:00,
2013-12-12 21:07:00,37.5,29.0,30.39,North,355,3.0,-999.0,71,-99.99,,,0.00,weatherlink.com 1.10,2013-12-13 02:07:00,
2013-12-12 21:21:00,37.3,29.0,30.39,NNE,18,7.0,-999.0,71,-99.99,,,0.00,weatherlink.com 1.10,2013-12-13 02:21:00,
2013-12-12 21:36:00,37.4,29.0,30.40,NNE,17,0.0,-999.0,71,-99.99,,,0.00,weatherlink.com 1.10,2013-12-13 02:36:00,
2013-12-12 21:52:00,36.9,29.0,30.39,NNE,28,0.0,-999.0,73,-99.99,,,0.00,weatherlink.com 1.10,2013-12-13 02:52:00,
2013-12-12 22:07:00,36.6,29.0,30.39,NNE,32,0.0,-999.0,73,-99.99,,,0.00,weatherlink.com 1.10,2013-12-13 03:07:00,
2013-12-12 22:22:00,35.8,28.0,30.39,NNE,32,0.0,-999.0,74,-99.99,,,0.00,weatherlink.com 1.10,2013-12-13 03:22:00,
2013-12-12 22:37:00,35.4,29.0,30.38,NNE,32,0.0,-999.0,76,-99.99,,,0.00,weatherlink.com 1.10,2013-12-13 03:37:00,
2013-12-12 22:52:00,35.2,28.0,30.37,NNE,32,0.0,-999.0,76,-99.99,,,0.00,weatherlink.com 1.10,2013-12-13 03:52:00,
2013-12-12 23:07:00,34.2,27.0,30.37,NNE,32,0.0,-999.0,76,-99.99,,,0.00,weatherlink.com 1.10,2013-12-13 04:07:00,
2013-12-12 23:22:00,32.8,27.0,30.37,NNE,32,0.0,-999.0,78,-99.99,,,0.00,weatherlink.com 1.10,2013-12-13 04:22:00,
2013-12-12 23:37:00,31.9,27.0,30.36,NNE,32,0.0,-999.0,82,-99.99,,,0.00,weatherlink.com 1.10,2013-12-13 04:37:00,
2013-12-12 23:52:00,31.5,27.0,30.36,NNE,32,0.0,-999.0,83,-99.99,,,0.00,weatherlink.com 1.10,2013-12-13 04:52:00,